Regional Weather Roundup
Issued by NWS

Home | Current Version | Previous Version | Text Only | Print | Product List | Glossary On
Versions: 1 2 3 4 5 6 7 8 9 10 11 12 13 14 15 16 17 18 19 20 21 22 23 24 25 26 27 28 29 30 31 32 33 34 35 36 37 38 39 40 41 42 43 44 45 46 47 48 49 50
000
ASUS44 KJAN 230510
RWRMS

MISSISSIPPI HOURLY WEATHER ROUNDUP
NATIONAL WEATHER SERVICE JACKSON MS
1200 AM CDT SAT MAY 23 2015

NOTE: "FAIR: INDICATES FEW OR NO CLOUDS BELOW 12,000 FEET WITH NO
SIGNIFICANT WEATHER AND/OR OBSTRUCTIONS TO VISIBILITY.

MSZ001>002-007>008-010>013-018>021-025>028-034>036-230600-
NORTHWEST MISSISSIPPI

CITY           SKY/WX    TMP DP  RH WIND       PRES   REMARKS
CLARKSDALE       N/A     61  57  88 CALM      30.23S
CLEVELAND      FAIR      64  56  73 E5        30.21S
GREENWOOD      CLEAR     59  53  80 CALM      30.21F
GREENVILLE     PTCLDY    65  55  70 E5        30.19F
OLIVE BRANCH   CLEAR     59  55  88 E3        30.25R
OXFORD         FAIR      54  50  87 W3        30.26R
TUNICA         PTCLDY    61  54  77 NE5       30.25S
$$

MSZ003>006-009-014>017-022>024-029>033-037>039-230600-
NORTHEAST MISSISSIPPI

CITY           SKY/WX    TMP DP  RH WIND       PRES   REMARKS
COLUMBUS AFB   CLEAR     54  45  70 CALM      30.22S
CORINTH        FAIR      55  52  88 SE3       30.23F
GOLDN TRIANGLE CLEAR     61  54  77 CALM      30.21F
STARKVILLE     FAIR      55  54  94 CALM      30.22F
TUPELO         CLEAR     56  52  86 NE7       30.23S
$$

MSZ040-058-230600-
CENTRAL MISSISSIPPI

CITY           SKY/WX    TMP DP  RH WIND       PRES   REMARKS
JACKSON INTL   CLEAR     65  56  72 E6        30.20F
JACKSON HAWKNS CLEAR     67  55  65 E7        30.20F
MERIDIAN KEY   CLEAR     59  56  89 CALM      30.22F
MERIDIAN NAS   CLEAR     58  55  90 CALM      30.23F
RAYMOND          N/A    N/A N/A N/A MISG        N/A
VICKSBURG      CLEAR     66  58  75 E3        30.19S
$$

MSZ059>079-230600-
SOUTH MISSISSIPPI

CITY           SKY/WX    TMP DP  RH WIND       PRES   REMARKS
BROOKHAVEN     FAIR      66  61  82 CALM      30.21S
HATTIESBURG    CLOUDY    70  61  73 E3        30.22R
MCCOMB         CLEAR     70  65  84 CALM      30.19S
NATCHEZ        CLEAR     64  61  88 CALM      30.19S
PINE BELT      CLEAR     64  57  77 NE5       30.22S
$$

MSZ080>082-230600-
COASTAL MISSISSIPPI

CITY           SKY/WX    TMP DP  RH WIND       PRES   REMARKS
BILOXI         CLOUDY    73  65  74 NE6       30.18S
PASCAGOULA     MOCLDY    69  64  84 CALM      30.19S
GULFPORT       CLOUDY    74  65  73 NE5       30.18S
$$


USA.gov is the U.S. government's official web portal to all federal, state and local government web resources and services.